Weather History for KDAW - November, 2013

Change the Weather History Date:

Wednesday, November 6, 2013

  Actual Average (KSFM) Record (KSFM)
Temperature  
Mean Temperature 46 °F -  
Max Temperature 57 °F 48 °F 57 °F (1999)
Min Temperature 35 °F 29 °F 15 °F (2012)
Degree Days  
Heating Degree Days 19    
Moisture  
Dew Point 37 °F    
Average Humidity 70    
Maximum Humidity 82    
Minimum Humidity 51    
Precipitation  
Precipitation 0.00 in - - ()
Sea Level Pressure  
Sea Level Pressure 30.26 in    
Wind  
Wind Speed 2 mph (South)    
Max Wind Speed 12 mph    
Max Gust Speed 16 mph    
Visibility 10 miles    
Events      
Averages and records for this station are not official NWS values.
T = Trace of Precipitation, MM = Missing Value Source: NWS Daily Summary

Daily Weather History Graph

Daily Weather History Graph

Search for Another Location

Airport or City:

Trip Planner

Search our weather history database for the weather conditions in past years. The results will help you decide how hot, cold, wet, or windy it might be!

Date:

Astronomy

Nov. 06, 2013 Rise Set
Actual Time 6:25 AM EST 4:28 PM EST
Civil Twilight 5:55 AM EST 4:58 PM EST
Nautical Twilight 5:21 AM EST 5:32 PM EST
Astronomical Twilight 4:48 AM EST 6:05 PM EST
Moon 9:39 AM EST (11/6) 7:27 PM EST (11/6)
Length of Visible Light 11h 03m
Length of Day
10h 03m
Waxing Crescent, 13% of the Moon is Illuminated
Nov 6
Waxing Crescent
Nov 10
First Quarter
Nov 17
Full
Nov 25
Last Quarter
Dec 2
New

Hourly Weather History & Observations

Time (EST) Temp. Windchill Dew Point Humidity Pressure Visibility Wind Dir Wind Speed Gust Speed Precip Events Conditions
12:51 AM 35.1 °F - 30.0 °F 82% 30.48 in 10.0 mi Calm Calm - N/A   Scattered Clouds
1:51 AM 36.0 °F - 30.9 °F 82% 30.48 in 10.0 mi Calm Calm - N/A   Clear
2:51 AM 35.1 °F - 30.0 °F 82% 30.44 in 10.0 mi Calm Calm - N/A   Clear
3:51 AM 36.0 °F - 30.9 °F 82% 30.43 in 10.0 mi Calm Calm - N/A   Clear
4:51 AM 37.0 °F - 30.9 °F 79% 30.42 in 10.0 mi Calm Calm - N/A   Scattered Clouds
5:51 AM 37.0 °F - 30.9 °F 79% 30.42 in 10.0 mi Calm Calm - N/A   Clear
6:51 AM 37.0 °F - 32.0 °F 82% 30.41 in 10.0 mi Calm Calm - N/A   Clear
7:51 AM 39.0 °F - 33.1 °F 79% 30.39 in 10.0 mi Calm Calm - N/A   Clear
8:51 AM 44.1 °F 42.5 °F 36.0 °F 73% 30.39 in 10.0 mi South 3.5 mph - N/A   Clear
9:51 AM 48.9 °F - 37.9 °F 66% 30.35 in 10.0 mi South 5.8 mph - N/A   Clear
11:51 AM 54.0 °F - 41.0 °F 62% 30.27 in 10.0 mi Variable 5.8 mph - N/A   Clear
12:51 PM 57.0 °F - 41.0 °F 55% 30.23 in 10.0 mi South 11.5 mph 16.1 mph N/A   Clear
1:51 PM 57.0 °F - 39.9 °F 53% 30.21 in 10.0 mi Variable 5.8 mph - N/A   Clear
2:51 PM 57.9 °F - 39.9 °F 51% 30.19 in 10.0 mi Variable 4.6 mph - N/A   Clear
3:51 PM 57.0 °F - 39.9 °F 53% 30.17 in 10.0 mi South 4.6 mph - N/A   Clear
4:51 PM 54.0 °F - 39.9 °F 59% 30.16 in 10.0 mi SSE 3.5 mph - N/A   Clear
5:51 PM 51.1 °F - 41.0 °F 68% 30.15 in 10.0 mi Calm Calm - N/A   Clear
6:51 PM 51.1 °F - 39.9 °F 66% 30.13 in 10.0 mi South 4.6 mph - N/A   Clear
7:51 PM 52.0 °F - 39.9 °F 63% 30.10 in 10.0 mi South 5.8 mph - N/A   Clear
8:51 PM 52.0 °F - 39.9 °F 63% 30.08 in 10.0 mi Variable 3.5 mph - N/A   Clear
9:51 PM 52.0 °F - 42.1 °F 69% 30.05 in 10.0 mi Variable 4.6 mph - N/A   Clear
10:51 PM 51.1 °F - 44.1 °F 77% 30.02 in 10.0 mi Variable 3.5 mph - N/A   Clear
11:51 PM 51.1 °F - 45.0 °F 80% 29.99 in 10.0 mi South 4.6 mph - N/A   Clear